This is the latest recevied weather packets stored in our database for station/object EB2EMZ-3. If no packets are shown the sender has not sent any weather packets the latest 1 day(s).
| Time | Temp. | Humidity | Pressure | Rain* | Wind** | Luminosity | Snow |
|---|---|---|---|---|---|---|---|
| 1777997974 | 19.44° C | 66% | 1009.8 hPa | 0 mm | 0 m/s | - | - |
| 1777997674 | 20° C | 66% | 1009.6 hPa | 0 mm | 0.89 m/s, 225° | - | - |
| 1777997374 | 20° C | 66% | 1009.7 hPa | 0 mm | 1.34 m/s, 225° | - | - |
| 1777997074 | 20° C | 66% | 1009.7 hPa | 0 mm | 0 m/s | - | - |
| 1777996774 | 19.44° C | 66% | 1009.5 hPa | 0 mm | 0 m/s | - | - |
| 1777996474 | 19.44° C | 66% | 1009.6 hPa | 0 mm | 0.89 m/s, 247° | - | - |
| 1777996174 | 19.44° C | 66% | 1009.6 hPa | 0 mm | 0 m/s | - | - |
| 1777995874 | 19.44° C | 66% | 1009.5 hPa | 0 mm | 0 m/s | - | - |
| 1777995574 | 19.44° C | 66% | 1009.4 hPa | 0 mm | 0 m/s | - | - |
| 1777995274 | 19.44° C | 66% | 1009.5 hPa | 0 mm | 1.34 m/s, 247° | - | - |
| 1777994974 | 19.44° C | 66% | 1009.4 hPa | 0 mm | 2.68 m/s, 225° | - | - |
| 1777994674 | 19.44° C | 66% | 1009.5 hPa | 0 mm | 2.68 m/s, 225° | - | - |
| 1777994374 | 19.44° C | 65% | 1009.6 hPa | 0 mm | 2.24 m/s, 225° | - | - |
| 1777994074 | 19.44° C | 65% | 1009.5 hPa | 0 mm | 3.13 m/s, 247° | - | - |
| 1777993774 | 19.44° C | 65% | 1009.6 hPa | 0 mm | 3.13 m/s, 225° | - | - |
| 1777993474 | 19.44° C | 66% | 1009.5 hPa | 0 mm | 1.34 m/s, 180° | - | - |
| 1777993174 | 19.44° C | 66% | 1009.7 hPa | 0 mm | 1.34 m/s, 180° | - | - |
| 1777992874 | 19.44° C | 65% | 1009.5 hPa | 0 mm | 1.34 m/s, 180° | - | - |
| 1777992574 | 20° C | 65% | 1009.7 hPa | 0 mm | 1.79 m/s, 225° | - | - |
| 1777992274 | 20° C | 65% | 1009.6 hPa | 0 mm | 0.45 m/s, 247° | - | - |
| 1777991974 | 20.56° C | 65% | 1009.6 hPa | 0 mm | 1.79 m/s, 157° | - | - |
| 1777991674 | 20.56° C | 66% | 1009.5 hPa | 0 mm | 1.79 m/s, 157° | - | - |
| 1777991374 | 20° C | 65% | 1009.8 hPa | 0 mm | 1.79 m/s, 157° | - | - |
| 1777991074 | 20° C | 65% | 1009.7 hPa | 0 mm | 3.58 m/s, 247° | - | - |
| 1777990774 | 20° C | 64% | 1009.6 hPa | 0 mm | 2.24 m/s, 157° | - | - |
* Rain latest hour (hover to see other rain measurements)
** Current wind speed in m/s (hover to see current wind gust speed)